Location: Unspecified
(0.0000°N, 0.0000°E)
Time: 22:01:45
(UTC+00:00)

LAPAN A2 - Pass Details

Date: 18 June 2023
Orbit: 628 x 647 km, 6.0° (Epoch: 01 October)

Event Time Altitude Azimuth Distance (km) Brightness Sun altitude
Exits shadow 03:35:11 15° 115° (ESE) 1,697 ? -33.1°
Drops below altitude 10° 03:36:02 10° 111° (ESE) 1,997 ? -32.9°
Sets 03:38:29 0° 105° (ESE) 2,901 ? -32.3°
